Location: Kawakawa
(35.3830°S, 174.0670°E)
Time: 04:08:07
(UTC+13:00)

Altair - Pass Details

Date: 08 December 2019
Orbit: 1502 x 1682 km, 47.2° (Epoch: 26 January)

Event Time Altitude Azimuth Distance (km) Brightness Sun altitude
Rises 12:03:19 0° 285° (WNW) 4,800 10.0 69.8°
Reaches altitude 10° 12:06:28 10° 280° (W) 3,843 9.6 70.4°
Maximum altitude 12:16:09 57° 202° (SSW) 1,916 8.7 71.9°
Drops below altitude 10° 12:26:09 10° 125° (SE) 3,959 9.8 73.4°
Sets 12:29:29 0° 120° (ESE) 4,954 10.2 73.8°
